Atlantic City, NJ

4:36 PM EDT on June 25, 2017 (GMT -0400)
Atlantic City International

Weather History for KACY - May, 2013

Change the Weather History Date:

Wednesday, May 22, 2013

  Actual Average Record
Temperature  
Mean Temperature 75 °F 63 °F  
Max Temperature 82 °F 73 °F 91 °F (1992)
Min Temperature 67 °F 53 °F 36 °F (2002)
Degree Days  
Heating Degree Days 0 4  
Month to date heating degree days 151 145  
Since 1 July heating degree days 4790 4849  
Cooling Degree Days 10 2  
Month to date cooling degree days 34 30  
Year to date cooling degree days 49 39  
Growing Degree Days 24 (Base 50)    
Moisture  
Dew Point 66 °F    
Average Humidity 80    
Maximum Humidity 93    
Minimum Humidity 67    
Precipitation  
Precipitation 0.00 in 0.12 in 1.85 in (2017)
Month to date precipitation 2.12 2.30  
Year to date precipitation 16.98 16.23  
Snow  
Snow 0.00 in 0.00 in 0.00 in ()
Month to date snowfall 0.0 0.0  
Since 1 July snowfall 14.6 16.5  
Snow Depth 0.00 in    
Sea Level Pressure  
Sea Level Pressure 29.92 in    
Wind  
Wind Speed 9 mph (SSW)    
Max Wind Speed 18 mph    
Max Gust Speed 24 mph    
Visibility 8 miles    
Events      
T = Trace of Precipitation, MM = Missing Value Source: NWS Daily Summary

Daily Weather History Graph

Daily Weather History Graph

Search for Another Location

Airport or City:

Trip Planner

Search our weather history database for the weather conditions in past years. The results will help you decide how hot, cold, wet, or windy it might be!

Date:

Astronomy

May. 22, 2013 Rise Set
Actual Time 5:38 AM EDT 8:11 PM EDT
Civil Twilight 5:07 AM EDT 8:42 PM EDT
Nautical Twilight 4:29 AM EDT 9:21 PM EDT
Astronomical Twilight 3:46 AM EDT 10:04 PM EDT
Moon 5:31 PM EDT (5/22) 3:40 AM EDT (5/22)
Length of Visible Light 15h 35m
Length of Day
14h 33m
Waxing Gibbous, 91% of the Moon is Illuminated
May 22
Waxing Gibbous
May 25
Full
May 31
Last Quarter
Jun 8
New
Jun 16
First Quarter

Hourly Weather History & Observations

Time (EDT) Temp. Heat Index Dew Point Humidity Pressure Visibility Wind Dir Wind Speed Gust Speed Precip Events Conditions
12:54 AM 68.0 °F - 64.9 °F 90% 29.91 in 10.0 mi SSW 5.8 mph - N/A   Clear
1:54 AM 68.0 °F - 64.9 °F 90% 29.92 in 10.0 mi SSW 6.9 mph - N/A   Partly Cloudy
2:54 AM 68.0 °F - 64.9 °F 90% 29.90 in 10.0 mi SSW 8.1 mph - N/A   Clear
3:54 AM 68.0 °F - 64.9 °F 90% 29.89 in 9.0 mi SSW 6.9 mph - N/A   Clear
4:54 AM 69.1 °F - 66.0 °F 90% 29.89 in 8.0 mi SSW 5.8 mph - N/A   Clear
5:03 AM 69.1 °F - 66.0 °F 90% 29.89 in 8.0 mi SSW 6.9 mph - N/A   Partly Cloudy
5:37 AM 66.9 °F - 66.0 °F 97% 29.89 in 2.0 mi SSE 5.8 mph - N/A   Mostly Cloudy
5:54 AM 66.9 °F - 64.9 °F 93% 29.90 in 2.0 mi South 4.6 mph - N/A   Overcast
6:54 AM 68.0 °F - 64.9 °F 90% 29.93 in 2.0 mi SSW 5.8 mph - N/A   Overcast
7:54 AM 70.0 °F - 66.0 °F 87% 29.93 in 2.0 mi South 5.8 mph - N/A   Overcast
8:54 AM 70.0 °F - 66.0 °F 87% 29.94 in 2.0 mi SW 5.8 mph - N/A   Overcast
9:06 AM 71.1 °F - 66.9 °F 87% 29.94 in 10.0 mi SSW 5.8 mph - N/A   Overcast
9:54 AM 73.0 °F - 68.0 °F 84% 29.94 in 10.0 mi SW 8.1 mph - N/A   Overcast
10:10 AM 73.9 °F - 66.9 °F 79% 29.93 in 10.0 mi WSW 11.5 mph - N/A   Overcast
10:54 AM 75.0 °F - 66.9 °F 76% 29.95 in 10.0 mi West 10.4 mph - N/A   Overcast
11:50 AM 75.2 °F - 68.0 °F 78% 29.95 in 10.0 mi SW 6.9 mph - N/A   Overcast
11:54 AM 75.9 °F - 68.0 °F 76% 29.95 in 10.0 mi SW 6.9 mph - N/A   Overcast
12:54 PM 79.0 °F - 68.0 °F 69% 29.93 in 9.0 mi WSW 10.4 mph - N/A   Mostly Cloudy
1:54 PM 79.0 °F - 68.0 °F 69% 29.92 in 8.0 mi SSW 12.7 mph - N/A   Overcast
2:54 PM 80.1 °F 82.7 °F 68.0 °F 67% 29.91 in 7.0 mi SSW 13.8 mph 21.9 mph N/A   Mostly Cloudy
3:06 PM 81.0 °F 84.1 °F 69.1 °F 67% 29.91 in 7.0 mi SSW 13.8 mph - N/A   Scattered Clouds
3:54 PM 81.0 °F 83.8 °F 68.0 °F 65% 29.90 in 6.0 mi SSW 12.7 mph - N/A   Haze
4:54 PM 80.1 °F 82.7 °F 68.0 °F 67% 29.88 in 8.0 mi South 11.5 mph - N/A   Clear
5:54 PM 78.1 °F - 66.0 °F 66% 29.89 in 9.0 mi South 9.2 mph - N/A   Clear
6:54 PM 75.9 °F - 64.9 °F 69% 29.89 in 10.0 mi South 11.5 mph 21.9 mph N/A   Clear
7:54 PM 71.1 °F - 63.0 °F 75% 29.90 in 10.0 mi South 13.8 mph - N/A   Clear
8:54 PM 69.1 °F - 63.0 °F 81% 29.91 in 10.0 mi South 9.2 mph - N/A   Clear
9:54 PM 68.0 °F - 63.0 °F 84% 29.93 in 10.0 mi South 9.2 mph - N/A   Clear
10:54 PM 66.9 °F - 63.0 °F 87% 29.94 in 10.0 mi South 8.1 mph - N/A   Clear
11:54 PM 66.9 °F - 63.0 °F 87% 29.94 in 10.0 mi South 10.4 mph - N/A   Clear